Voltar ao catálogo

EGS

AJISAI

AtivoCiênciaLEO
NORAD 16908·PAYLOAD·🇯🇵 Japan

Lançado Aug 12, 1986 de Tanegashima Space Center

Loading…

Próximas Passagens (próximas 24 horas)

TLE

AtualizadoSource: CelesTrak SupGP

Época: Sep 14, 2026, 00:00 UTC

1 16908C 86061A   26257.00000000  .00000007  00000+0  50310-4 0  2573
2 16908  50.0075 234.2993 0011331  46.3471 225.4635 12.44517261    10

Acompanhe EGS em tempo real com AllMySat

Download on the App Store